Dansville, NY

6:24 AM EST on February 22, 2017 (GMT -0500)
Dansville Municipal

Weather History for KDSV - February, 2014

Change the Weather History Date:

Thursday, February 13, 2014

  Actual Average Record
Temperature  
Mean Temperature 18 °F -  
Max Temperature 23 °F 33 °F 66 °F (1965)
Min Temperature 12 °F 14 °F -8 °F (1967)
Degree Days  
Heating Degree Days 48    
Moisture  
Dew Point 14 °F    
Average Humidity 79    
Maximum Humidity 93    
Minimum Humidity 56    
Precipitation  
Precipitation 0.02 in - - ()
Sea Level Pressure  
Sea Level Pressure 29.82 in    
Wind  
Wind Speed 5 mph (NW)    
Max Wind Speed 14 mph    
Max Gust Speed -    
Visibility 5 miles    
Events Snow    
Averages and records for this station are not official NWS values.
T = Trace of Precipitation, MM = Missing Value Source: NWS Daily Summary

Daily Weather History Graph

Daily Weather History Graph

Search for Another Location

Airport or City:

Trip Planner

Search our weather history database for the weather conditions in past years. The results will help you decide how hot, cold, wet, or windy it might be!

Date:

Astronomy

Feb. 13, 2014 Rise Set
Actual Time 7:10 AM EST 5:40 PM EST
Civil Twilight 6:41 AM EST 6:09 PM EST
Nautical Twilight 6:08 AM EST 6:42 PM EST
Astronomical Twilight 5:35 AM EST 7:15 PM EST
Moon 4:46 PM EST (2/13) 6:02 AM EST (2/13)
Length of Visible Light 11h 27m
Length of Day
10h 29m
Waxing Gibbous, 98% of the Moon is Illuminated
Feb 13
Waxing Gibbous
Feb 14
Full
Feb 22
Last Quarter
Mar 1
New
Mar 8
First Quarter

Hourly Weather History & Observations

Time (EST) Temp. Windchill Dew Point Humidity Pressure Visibility Wind Dir Wind Speed Gust Speed Precip Events Conditions
12:54 AM 17.1 °F 7.6 °F 3.9 °F 56% 30.22 in 10.0 mi SE 6.9 mph - N/A   Clear
1:54 AM 17.1 °F 10.0 °F 6.1 °F 62% 30.20 in 10.0 mi SSE 4.6 mph - N/A   Clear
2:54 AM 17.1 °F 7.6 °F 7.0 °F 65% 30.18 in 10.0 mi South 6.9 mph - N/A   Clear
3:54 AM 16.0 °F 6.3 °F 7.0 °F 68% 30.15 in 10.0 mi South 6.9 mph - N/A   Clear
4:54 AM 16.0 °F - 7.0 °F 68% 30.14 in 10.0 mi Calm Calm - N/A   Clear
5:54 AM 15.1 °F - 8.1 °F 74% 30.12 in 10.0 mi Calm Calm - N/A   Clear
6:54 AM 14.0 °F - 7.0 °F 74% 30.10 in 10.0 mi Calm Calm - N/A   Clear
7:54 AM 12.9 °F 3.8 °F 7.0 °F 77% 30.08 in 9.0 mi NW 5.8 mph - N/A   Clear
8:54 AM 14.0 °F - 7.0 °F 74% 30.06 in 9.0 mi Calm Calm - N/A   Clear
9:54 AM 16.0 °F - 9.0 °F 74% 30.03 in 9.0 mi Calm Calm - N/A   Mostly Cloudy
10:54 AM 18.0 °F - 10.0 °F 71% 30.00 in 8.0 mi Calm Calm - N/A   Overcast
11:42 AM 19.4 °F 12.8 °F 10.4 °F 68% 29.90 in 9.0 mi NW 4.6 mph - N/A   Overcast
11:54 AM 19.0 °F 12.3 °F 10.9 °F 71% 29.95 in 9.0 mi NW 4.6 mph - N/A   Overcast
12:15 PM 19.4 °F 14.3 °F 10.4 °F 68% 29.87 in 8.0 mi NNW 3.5 mph - N/A   Overcast
12:22 PM 19.4 °F 14.3 °F 10.4 °F 68% 29.87 in 9.0 mi NNW 3.5 mph - N/A   Overcast
12:54 PM 19.9 °F 14.9 °F 12.0 °F 71% 29.91 in 10.0 mi NW 3.5 mph - N/A   Overcast
1:32 PM 21.2 °F 16.4 °F 12.2 °F 68% 29.82 in 10.0 mi NW 3.5 mph - N/A   Overcast
1:54 PM 21.9 °F 14.5 °F 12.9 °F 68% 29.86 in 2.5 mi NNW 5.8 mph - 0.00 in Snow Light Snow
2:54 PM 21.0 °F 16.2 °F 16.0 °F 81% 29.81 in 1.2 mi NNW 3.5 mph - 0.00 in Snow Light Snow
3:20 PM 21.2 °F - 17.6 °F 86% 29.73 in 1.0 mi Calm Calm - 0.00 in Snow Light Snow
3:30 PM 21.2 °F - 17.6 °F 86% 29.72 in 1.0 mi Calm Calm - 0.00 in Snow Light Snow
3:54 PM 21.9 °F 17.2 °F 18.0 °F 85% 29.76 in 0.8 mi NW 3.5 mph - 0.00 in Snow Light Snow
4:34 PM 23.0 °F 13.9 °F 19.4 °F 86% 29.68 in 1.0 mi NW 8.1 mph - 0.00 in Snow Light Snow
4:54 PM 23.0 °F 15.8 °F 19.0 °F 85% 29.73 in 1.0 mi NW 5.8 mph - 0.00 in Snow Light Snow
5:03 PM 23.0 °F 14.7 °F 19.4 °F 86% 29.67 in 0.8 mi NNW 6.9 mph - 0.00 in Snow Light Snow
5:41 PM 21.2 °F 12.6 °F 19.4 °F 93% 29.65 in 1.0 mi NNW 6.9 mph - 0.01 in Snow Light Snow
5:54 PM 23.0 °F 13.1 °F 19.9 °F 88% 29.71 in 2.0 mi NNW 9.2 mph - 0.01 in Snow Light Snow
6:06 PM 23.0 °F 13.1 °F 19.4 °F 86% 29.65 in 1.5 mi NW 9.2 mph - 0.00 in Snow Light Snow
6:54 PM 23.0 °F 13.9 °F 21.0 °F 92% 29.69 in 1.0 mi NW 8.1 mph - 0.01 in Snow Light Snow
7:54 PM 23.0 °F 14.7 °F 19.9 °F 88% 29.66 in 2.0 mi NNW 6.9 mph - 0.00 in Snow Light Snow
8:14 PM 23.0 °F 13.9 °F 19.4 °F 86% 29.59 in 3.0 mi North 8.1 mph - 0.00 in Snow Light Snow
8:39 PM 23.0 °F 13.1 °F 19.4 °F 86% 29.58 in 2.0 mi NNW 9.2 mph - 0.00 in Snow Light Snow
8:54 PM 23.0 °F 12.4 °F 19.9 °F 88% 29.63 in 1.5 mi NW 10.4 mph - 0.00 in Snow Light Snow
9:54 PM 23.0 °F 12.4 °F 19.9 °F 88% 29.59 in 2.0 mi NNW 10.4 mph - 0.00 in Snow Light Snow
10:28 PM 23.0 °F 11.1 °F 19.4 °F 86% 29.52 in 3.0 mi NW 12.7 mph - 0.00 in Snow Light Snow
10:52 PM 23.0 °F 11.7 °F 19.4 °F 86% 29.52 in 1.8 mi NW 11.5 mph - 0.00 in Snow Light Snow
10:54 PM 23.0 °F 10.6 °F 19.9 °F 88% 29.57 in 1.5 mi NW 13.8 mph - 0.00 in Snow Light Snow
11:33 PM 21.2 °F 12.6 °F 19.4 °F 93% 29.50 in 1.5 mi NNW 6.9 mph - 0.00 in Snow Light Snow
11:54 PM 21.9 °F 12.5 °F 19.9 °F 92% 29.54 in 1.5 mi NNW 8.1 mph - 0.00 in Snow Light Snow